Regional Weather Roundup
Issued by NWS

Home | Current Version | Previous Version | Text Only | Print | Product List | Glossary On
Versions: 1 2 3 4 5 6 7 8 9 10 11 12 13 14 15 16 17 18 19 20 21 22 23 24 25 26 27 28 29 30 31 32 33 34 35 36 37 38 39 40 41 42 43 44 45 46 47 48 49 50
000
ASUS44 KOUN 310310
RWROK

WEATHER ROUNDUP FOR OKLAHOMA
NATIONAL WEATHER SERVICE NORMAN OK
1000 PM CDT SAT JUL 30 2016

NOTE: "FAIR" INDICATES FEW OR NO CLOUDS BELOW 12,000 FEET WITH NO
      SIGNIFICANT WEATHER AND/OR OBSTRUCTIONS TO VISIBILITY.

OKZ001>007-009>012-014-015-017-310400-
NORTHWEST OKLAHOMA AND THE PANHANDLE

CITY           SKY/WX    TMP DP  RH WIND       PRES   REMARKS
GAGE           CLEAR     83  67  58 S14       29.92R
GUYMON         CLEAR     83  59  44 S13       29.92R
ENID/WOODRING  CLEAR     79  75  89 SE7       29.92R
$$

OKZ016-021>023-033>039-044-045-310400-
SOUTHWEST OKLAHOMA

CITY           SKY/WX    TMP DP  RH WIND       PRES   REMARKS
LAWTON/REGL    CLOUDY    83  71  67 SE5       29.90R
LAWTON/FT SILL CLOUDY    83  71  66 SE5       29.90R
FREDERICK        N/A    N/A N/A N/A MISG      29.87R
CLINTON        MOCLDY    84  67  56 SE8       29.94R
HOBART         PTCLDY    83  64  52 S8        29.92
ALTUS AFB      MOCLDY    81  66  61 SE5       29.91R
$$

OKZ018>020-024>031-310400-
CENTRAL OKLAHOMA

CITY           SKY/WX    TMP DP  RH WIND       PRES   REMARKS
OKLAHOMA CITY  PTCLDY    82  71  69 SE8       29.92R
OKC/WILEY POST CLEAR     84  73  69 SE12      29.92R HX  90
OKC/TINKER AFB CLEAR     78  69  73 E5        29.92R
STILLWATER     CLEAR     80  72  76 SE9       29.93R
GUTHRIE        CLEAR     80  74  81 SE12G21   29.92R
$$

OKZ008-013-054>072-310400-
NORTHEAST OKLAHOMA

CITY           SKY/WX    TMP DP  RH WIND       PRES   REMARKS
TULSA          CLOUDY    80  72  76 E7        29.93R
TULSA/JONES    CLOUDY    81  73  76 SE8       29.93S
PONCA CITY     CLEAR     79  71  76 SE10      29.93R
BARTLESVILLE   CLEAR     73  70  90 CALM      29.95R
MUSKOGEE       PTCLDY    78  74  87 SE5       29.96R
$$

OKZ032-040>043-046>053-073>077-310400-
SOUTH CENTRAL/SOUTHEAST OKLAHOMA

CITY           SKY/WX    TMP DP  RH WIND       PRES   REMARKS
ARDMORE/DWNTWN CLEAR     88  63  42 S5        29.91S
MCALESTER      MOCLDY    80  71  74 CALM      29.95R
$$




USA.gov is the U.S. government's official web portal to all federal, state and local government web resources and services.